Powrót do katalogu

STARLINK-31354

AktywnyŁącznośćVLEO
NORAD 58942·PAYLOAD·🇺🇸 United States

Wystrzelony Feb 10, 2024 z Vandenberg Space Force Base

Loading…

Następne Przeloty (najbliższe 24 godziny)

TLE

ŚwieżeSource: CelesTrak SupGP

Epoka: Sep 15, 2026, 02:50 UTC

1 58942C 24027M   26258.11854167  .00036669  00000+0  11793-2 0  2589
2 58942  53.1579 148.4124 0001382  83.6601 129.7846 15.31679142    19

Śledź STARLINK-31354 w czasie rzeczywistym z AllMySat

Download on the App Store